Presure
129 132 119 110 127 145 150 126 141 142 140 132 143 117 145 128 131 88 130 184 173 122 119 138 174 126 176 124 203 127 130 143 131 156 124 142 151 141 127 95 153 147 143
154 114 106 115 118 152 106 148 152 132 138 153 140 135 149 174 138 145 180 130 188 122 130 99 136 145 127 133 139 134 132 133 188 138 212 203 145 157 153 147 157 162 126
139 126 142 143 136 136 147 152 138 164 132 135 169 130 125 135 165 160 124 172 126 180 131 135 138 149 152 207 145 170 163 197 157 175 187 171 139 172 214 200 159 127 145
126 183 149 150 164 127 139 126 123 150 157 160 123 162 145 140 126 137 170 129 130 126 125 116 139 153 109 136 143 173 143 136 170 194 183 116 144 153 198 141 185 167 181
161 282 148 346 127 160 195 143 147 155 140 139 160 159 119 164 125 145 131 155 150 127 124 127 135 190 141 173 137 140 132 152 155 187 156 146 145 134 165 126 144 183 214
128 137 156 163 250 138 200 162 243 134 137 142 164 134 153 161 149 134 125 119 126 142 137 150 109 183 158 161 143 109 107 145 127 156 128 133 167 88 95 99 99 137 97
345 344 95 358 158 392 137 110 146 149 366 176 286 167 153 148 139 134 155 133 138 156 135 131 118 141 171 135 137 97 140 131 122 166 178 130 117 185 106 108 141 140 182
337 354 366 394 413 134 160 142 158 171 145 173 152 157 159 130 178 97 125 180 143 165 212 131 153 114 193 202 177 136 147 144 162 170 110 176 77 158 180 173 119 149 145
315 318 324 319 342 385 154 141 441 137 211 489 149 136 129 167 133 125 138 149 131 141 129 126 132 126 188 190 208 147 179 129 141 196 135 109 132 172 177 153 146 152 184
306 309 309 301 327 238 150 413 172 146 149 158 212 150 151 158 137 142 135 226 130 118 124 174 155 153 199 192 183 218 112 162 143 127 140 136 131 157 115 146 148 137 153
160 173 184 159 308 140 157 429 424 252 146 526 134 131 136 159 143 127 133 140 138 123 125 136 137 176 198 120 179 131 161 165 126 160 172 147 158 167 164 135 166 138 185
139 198 287 151 172 160 138 135 144 293 162 138 398 135 146 156 222 146 134 132 286 134 151 122 199 157 173 159 170 134 135 124 132 179 139 114 203 118 130 129 139 188 173
138 135 169 183 166 148 148 146 223 249 159 465 493 523 155 148 135 134 136 333 376 139 381 179 177 136 194 234 149 137 210 175 167 142 141 114 126 136 218 177 140 214 202
259 267 271 268 279 278 279 289 230 293 364 339 138 241 243 317 197 131 128 150 191 269 147 138 110 236 161 197 213 172 116 128 107 113 142 145 156 122 171 170 208 134 137
197 250 267 258 262 243 241 228 189 285 316 333 364 388 302 306 238 287 311 335 262 352 219 349 295 250 347 152 331 245 282 172 213 169 185 128 173 154 130 172 171 205 207
246 243 237 244 262 250 262 267 274 201 289 112 281 290 319 394 275 296 293 291 295 299 148 312 164 335 342 279 349 127 185 182 314 173 175 184 152 198 212 200 161 158 125
232 232 244 244 252 251 257 258 261 127 270 271 155 228 282 113 137 167 116 130 112 138 191 148 131 295 266 175 230 190 107 170 177 182 230 185 126 232 200 197 144 149 177
234 243 235 233 258 237 239 255 252 248 212 276 271 264 158 265 274 264 196 279 120 199 200 184 212 242 178 144 108 154 145 133 302 295 219 221 181 131 171 170 209 212 205
232 244 240 232 246 234 234 226 238 250 237 240 249 250 259 268 276 187 240 129 211 270 251 220 277 146 128 126 131 203 123 164 241 215 132 138 198 133 134 114 141 156 146
215 226 240 230 248 233 239 238 226 235 235 241 239 140 237 245 247 244 250 251 261 253 258 155 259 141 112 125 123 244 188 125 164 201 203 132 129 209 163 144 160 203 199
241 225 231 218 234 227 228 234 229 229 226 234 249 231 140 140 243 199 153 237 244 240 248 226 256 209 158 181 135 130 126 142 159 201 145 191 209 203 162 204 179 169 193
239 243 218 224 232 235 226 233 225 214 225 224 230 236 238 151 148 234 200 148 179 188 163 213 203 179 234 168 176 148 125 116 140 159 217 188 192 214 218 207 189 185 205
224 230 240 213 225 229 218 230 221 230 226 210 209 215 219 245 246 145 186 156 155 157 143 144 145 151 216 152 124 231 222 151 157 161 198 201 187 193 202 195 206 187 186
239 239 228 232 239 239 224 231 221 231 222 223 210 231 212 205 210 165 162 158 216 154 204 154 159 197 201 181 172 178 173 163 211 172 186 207 191 187 158 191 195 222 166
236 240 238 236 234 246 244 157 160 223 237 228 221 212 223 204 188 176 172 173 184 212 189 187 185 162 194 180 197 218 224 223 190 191 186 149 151 193 198 163 188 225 193
243 241 247 249 257 236 229 248 248 186 229 221 223 187 219 217 218 208 224 219 194 216 176 206 199 200 197 188 196 194 183 179 159 152 152 185 222 233 219 166 138 198 237
Wind_Speed
56 56 55 47 56 56 57 52 49 46 43 43 40 41 40 41 40 31 36 60 47 36 37 37 51 34 55 40 56 39 44 40 46 45 33 44 48 34 33 40 40 38 42
63 54 40 49 49 63 37 53 52 51 44 42 41 36 41 60 42 47 58 39 63 39 38 35 37 44 36 37 43 45 42 45 54 46 62 54 47 52 47 42 45 41 43
64 62 64 64 59 59 57 57 53 59 45 44 65 43 46 40 55 60 45 58 38 63 36 34 33 44 51 59 48 45 44 57 39 38 53 50 43 50 62 52 36 44 45
62 79 66 65 67 50 54 53 50 50 50 51 58 54 43 42 49 47 57 41 41 44 45 40 43 45 41 44 42 50 43 41 37 56 50 40 57 61 57 48 47 48 52
61 73 65 85 53 61 59 45 44 48 47 47 52 51 62 55 57 45 48 45 44 50 45 46 46 66 42 63 47 46 45 40 39 52 41 41 61 40 53 43 49 50 59
40 51 59 58 47 51 54 57 75 56 54 57 58 57 54 55 47 53 54 45 50 50 49 57 37 62 55 53 52 36 35 49 48 50 46 50 60 28 43 44 50 55 38
27 24 25 31 48 40 55 41 55 54 91 59 82 58 52 51 56 56 47 52 50 52 52 48 43 45 57 48 50 39 54 45 49 53 57 47 47 59 48 49 56 55 56
26 28 30 32 30 58 56 56 50 51 57 58 55 53 54 59 61 27 46 54 50 62 83 50 49 43 59 76 64 51 56 51 51 62 41 57 23 60 59 57 54 63 61
23 31 33 26 28 25 51 54 41 56 49 46 52 55 59 46 63 56 51 50 49 47 51 53 53 53 51 55 73 58 62 55 55 62 55 53 48 61 64 67 65 69 61
24 29 30 33 52 23 52 30 46 58 56 54 50 52 52 54 60 57 55 61 52 52 51 63 53 54 58 53 53 76 41 59 55 52 56 55 52 55 51 52 70 57 67
41 27 27 45 50 44 45 31 27 31 51 6 49 54 52 55 58 54 59 51 55 55 56 54 51 66 65 42 50 52 51 56 46 67 56 62 67 68 63 60 66 63 63
42 13 38 51 29 48 41 42 47 17 51 54 19 58 53 56 56 57 59 58 55 60 53 48 58 57 62 63 58 54 46 38 54 57 56 44 68 57 61 63 65 65 70
46 43 29 25 32 50 51 50 12 13 49 14 13 14 58 60 61 56 55 39 45 58 51 51 65 61 62 77 63 62 69 64 60 62 65 54 58 63 72 67 48 67 67
30 36 39 39 48 45 42 60 14 35 48 15 52 26 29 17 47 53 46 58 52 38 49 40 45 49 44 66 67 67 47 58 42 53 64 70 68 54 69 69 69 65 69
8 32 38 34 36 17 28 26 8 54 58 51 45 29 12 12 26 19 14 16 22 24 49 32 37 56 47 69 60 66 75 75 78 75 66 52 77 71 51 62 64 74 70
26 26 15 23 32 27 36 39 48 9 53 39 37 34 41 23 26 23 24 25 24 20 59 19 61 29 36 50 49 37 76 79 57 75 71 73 67 68 73 72 75 83 63
10 8 24 26 29 33 31 34 35 39 40 39 21 14 37 43 43 51 40 45 46 40 55 56 44 18 30 53 48 72 38 50 74 74 60 46 65 60 62 70 69 66 67
11 17 15 16 26 24 27 29 32 27 9 38 38 29 48 24 30 24 14 22 49 55 26 46 48 33 63 46 39 61 53 54 25 29 35 56 77 75 64 67 70 75 77
5 12 13 15 22 23 21 18 27 25 23 28 31 23 25 28 26 27 13 51 14 22 17 28 18 58 61 59 64 39 60 72 41 54 68 75 66 82 75 59 79 87 89
9 4 11 14 14 22 16 20 20 24 22 21 24 51 19 24 21 18 18 19 24 22 20 57 23 63 44 63 59 36 58 57 44 58 60 78 81 71 82 79 82 85 85
14 15 13 13 13 16 14 15 21 26 21 20 20 24 57 58 24 32 56 23 20 24 23 30 22 35 61 51 73 61 59 79 77 55 79 67 67 69 81 80 87 79 84
6 15 17 14 14 18 20 18 21 20 22 21 15 13 21 60 61 27 35 60 46 43 51 37 44 42 34 67 60 83 59 60 61 69 64 68 73 76 84 84 85 89 98
17 15 14 22 19 18 18 24 20 23 26 27 29 23 19 11 19 64 45 61 63 65 71 73 74 75 45 78 59 49 55 74 76 76 64 66 77 74 74 82 86 90 91
20 20 24 22 23 25 28 24 23 26 27 29 28 29 30 33 29 60 64 67 35 71 44 75 70 44 44 60 61 68 72 70 62 72 79 69 80 85 78 87 91 105 82
22 24 26 24 28 29 30 31 25 28 23 28 31 30 30 42 50 58 63 63 55 39 50 55 59 61 56 69 62 55 62 65 75 77 80 66 68 83 87 75 87 111 96
22 20 24 27 26 36 34 34 36 33 35 33 32 35 34 35 38 40 39 46 44 45 65 45 55 52 56 66 63 69 71 68 56 59 64 77 91 99 100 78 76 101 126
Wind_Direction
250 246 242 243 248 250 247 242 234 231 229 230 240 254 242 236 251 268 255 247 244 250 248 260 259 254 262 267 264 267 271 256 270 259 281 280 274 279 274 313 277 280 288
252 240 230 243 245 248 247 242 248 237 226 247 236 237 251 257 245 250 252 249 247 252 258 273 263 259 253 254 251 261 260 265 261 268 273 264 275 272 283 278 279 276 279
241 245 243 243 244 244 245 246 236 252 227 226 249 226 231 238 255 246 246 250 252 247 261 253 262 264 258 255 262 260 262 265 253 272 264 268 281 275 277 274 270 276 283
243 254 244 244 249 251 245 252 243 244 251 254 234 263 243 232 230 247 258 239 245 246 255 258 260 256 265 261 256 262 262 263 266 271 271 282 277 272 272 276 268 269 273
243 261 245 265 250 250 252 244 243 247 231 236 255 256 249 262 240 244 232 254 255 245 254 255 258 245 253 249 257 262 265 256 256 271 262 278 269 270 264 273 280 264 280
249 250 245 248 259 247 250 245 257 231 228 240 252 236 255 253 238 234 241 259 249 248 252 250 264 250 253 255 256 268 272 260 272 269 267 268 264 315 303 301 302 285 309
336 312 255 295 251 289 237 247 236 245 254 248 243 249 237 236 241 236 242 246 246 258 257 254 262 263 252 256 262 284 252 269 273 271 272 272 279 264 286 291 280 280 276
2 1 343 343 302 240 242 236 240 241 237 243 234 236 247 252 250 273 253 252 245 248 240 258 258 266 255 249 252 263 250 267 263 268 292 270 291 259 267 260 287 280 279
32 43 28 16 6 302 240 238 309 245 242 238 238 232 244 237 246 253 247 244 249 239 251 258 259 262 258 256 253 256 254 269 266 261 269 279 269 268 268 272 279 280 278
50 54 42 38 33 272 243 334 237 245 248 242 237 241 239 235 245 246 244 240 244 261 256 250 260 259 256 255 254 252 268 259 263 270 270 274 278 275 284 279 275 282 282
235 250 248 244 41 245 244 352 354 252 243 217 230 234 236 238 238 250 245 239 240 261 258 256 260 250 249 267 242 265 251 266 278 259 267 266 266 268 274 285 277 288 269
252 255 66 247 254 241 249 245 241 265 237 242 217 235 242 238 234 247 246 249 237 248 249 265 250 256 241 258 238 270 278 274 281 250 273 277 265 286 286 284 285 274 274
255 256 256 254 254 246 246 245 319 328 244 75 108 147 238 241 246 249 248 237 229 253 230 255 249 262 252 244 256 272 253 243 267 273 273 285 286 280 261 269 278 265 268
70 67 58 67 69 76 72 65 16 44 49 233 251 219 221 184 237 255 258 247 246 241 254 268 276 250 258 245 251 261 277 275 282 283 266 275 273 286 263 276 263 285 285
102 85 71 75 65 71 79 77 112 73 71 70 57 55 157 173 229 192 175 198 243 217 241 232 247 242 239 253 240 249 246 247 248 260 253 268 265 273 280 272 275 261 263
96 96 96 86 67 78 77 81 88 88 84 235 95 77 72 83 200 177 177 179 178 192 255 219 248 233 235 248 234 265 240 242 241 260 263 259 270 263 265 265 276 279 287
122 117 98 91 84 84 77 90 92 236 90 99 243 109 89 247 242 237 255 246 256 258 228 255 265 214 228 235 239 235 292 258 252 252 250 284 292 252 259 262 284 291 272
133 120 116 114 80 103 88 75 88 100 122 97 95 109 236 116 103 108 242 108 264 222 245 237 231 218 241 259 289 261 268 282 222 225 269 244 256 290 276 277 254 253 256
223 108 135 145 95 115 112 138 114 87 130 131 115 117 115 113 112 241 138 266 237 140 175 227 150 259 273 272 271 254 289 258 228 243 286 274 255 296 294 290 289 278 290
229 229 118 164 116 141 130 109 146 124 124 131 137 244 151 130 126 133 140 155 139 162 167 251 189 259 285 284 289 219 251 296 276 251 253 298 298 254 271 292 283 257 262
197 224 205 226 161 162 161 146 150 139 160 146 130 162 248 250 155 217 240 185 172 200 193 220 188 240 261 256 273 289 290 277 268 257 282 258 251 261 280 257 269 285 266
218 216 219 233 203 173 173 153 170 189 165 163 161 164 178 239 244 186 223 245 237 239 257 231 236 260 229 253 263 264 275 291 283 275 251 264 265 256 253 261 270 275 267
219 223 207 223 226 234 217 182 190 174 190 204 204 202 205 216 210 245 232 240 241 243 256 260 260 255 241 261 285 237 245 277 277 277 263 268 270 273 276 273 278 278 282
245 234 222 216 220 231 231 227 212 210 206 195 213 203 213 222 219 235 238 243 230 253 240 257 259 251 253 258 264 259 268 275 274 278 268 273 273 273 279 276 277 268 285
243 243 237 229 220 215 216 238 244 229 220 220 221 220 219 224 231 235 240 242 242 247 245 249 256 272 268 260 266 268 266 267 268 269 275 276 281 280 279 285 281 274 282
261 256 246 253 248 222 224 213 217 235 232 233 233 238 233 236 235 238 239 239 250 247 255 253 259 255 254 262 262 264 273 271 272 276 280 280 276 273 274 285 291 281 274